Location: Christchurch
(43.5330°S, 172.6330°E)
Time: 00:38:31
(UTC+13:00)

ISS - Pass Details

Date: 02 February 2019
Orbit: 403 x 411 km, 51.6° (Epoch: 21 February)

Event Time Altitude Azimuth Distance (km) Brightness Sun altitude
Exits shadow 04:31:20 50° 11° (NNE) 542 -3.5 -18.2°
Maximum altitude 04:31:40 53° 37° (NE) 521 -3.4 -18.2°
Drops below altitude 10° 04:34:58 10° 115° (ESE) 1,499 0.1 -17.8°
Sets 04:37:06 0° 119° (ESE) 2,365 1.5 -17.5°
